SPACEBEE-12 (46309 NORAD) Tracking and Keplerian Element Data

This shows tracking and keplerian element data for the satellite.

Feedback or suggestion? Click here.




ElementValue
Catalog46309
NameSPACEBEE-12
Epoch Orbit1376
Epoch Day338.9414694
Epoch Year2020
RAAN50.4305
Inclination97.5111
Eccentricity0.0001113
Argument of Perigee75.5522
Mean Anonmoly284.5832
Mean Motion15.11115884
Decay Rate5.2E-05
L11 46309U 20061AP 20338.94146940 .00005200 00000-0 31413-3 0 9996
L22 46309 97.5111 50.4305 0001113 75.5522 284.5832 15.11115884 13761

Live tracking and technical data element details for SPACEBEE-12 (NORAD 46309). SPACEBEE-12 can be tracked NOW for your location showing map with azimuth and elevation plus other details from your city location.

Track the satellite on the map from your city or location and see movement details for azimuth, elevation, latitude, longitude, range, height, and movement on the map or in text.







IsCatalogInMostPopularTable: catalog: 46309, numindb: 18
Update: records affected: 1



GetName: 46309 SPACEBEE-12

Hit Count: updated at: Sun, 06 Dec 2020 01:28:00 GMT